Regional Weather Roundup
Issued by NWS Columbia, SC

Home | Current Version | Previous Version | Text Only | Print | Product List | Glossary On
Versions: 1 2 3 4 5 6 7 8 9 10 11 12 13 14 15 16 17 18 19 20 21 22 23 24 25 26 27 28 29 30 31 32 33 34 35 36 37 38 39 40 41 42 43 44 45 46 47 48 49 50
000
ASUS42 KCAE 241510
RWRCAE
REGIONAL WEATHER ROUNDUP
NATIONAL WEATHER SERVICE COLUMBIA SC
1100 AM EDT SUN MAY 24 2015

NOTE: "FAIR" INDICATES FEW OR NO CLOUDS BELOW 12,000 FEET WITH NO
SIGNIFICANT WEATHER AND/OR OBSTRUCTIONS TO VISIBILITY.

NOT ALL STATIONS ARE QUALITY CONTROLLED BY THE NATIONAL
WEATHER SERVICE. USE DATA WITH CAUTION...ESPECIALLY
DEWPOINT OBSERVATIONS.

SCZ001>056-GAZ040-063>065-077-241600-
...UPSTATE SOUTH CAROLINA...

CITY           SKY/WX    TMP DP  RH WIND       PRES   REMARKS
ANDERSON       MOSUNNY   74  59  59 SE7       30.39F
LIBERTY        PTSUNNY   74  59  58 E6        30.39F
SPARTANBURG    MOSUNNY   73  57  56 S5        30.41S
CLEMSON        SUNNY     74  57  55 E6        30.41F
GREENVILLE     MOSUNNY   72  55  55 VRB5      30.41F
GREENWOOD      MOSUNNY   76  58  53 VRB5      30.40F
GREER          MOSUNNY   72  58  61 VRB5      30.40F
ROCK HILL      SUNNY     76  54  46 SW12      30.41F
CHESTER        SUNNY     77  50  38 SE8       30.41F
LAURENS        MOSUNNY   72  64  78 CALM      30.40F


...CENTRAL SOUTH CAROLINA...

CITY           SKY/WX    TMP DP  RH WIND       PRES   REMARKS
COLUMBIA APT   PTSUNNY   77  55  46 E16       30.38S
COLUMBIA OWENS PTSUNNY   77  56  48 VRB6      30.40S
DARLINGTON     MOSUNNY   79  55  44 E5        30.42S
FLORENCE       PTSUNNY   78  56  46 SE12      30.40R
MCENTIRE ANGB  PTSUNNY   76  58  52 E12       30.39S
ORANGEBURG     MOSUNNY   77  57  50 SE8       30.38S
SUMTER SHAW    MOSUNNY   78  56  47 SE9       30.38S
NEWBERRY       PTSUNNY   73  57  56 E5        30.42S
AIKEN          FAIR      75  54  46 E7G17     30.41S
BARNWELL       FAIR      79  57  47 E10       30.38S
MANNING        FAIR      77  48  36 E6        30.39S
CAMDEN         FAIR      77  55  47 VRB7G15   30.40F
LANCASTER      MOSUNNY   75  55  50 S7        30.41F
WINNSBORO      PTSUNNY   75  55  50 SE7       30.40S


...EASTERN AND COASTAL SOUTH CAROLINA...

CITY           SKY/WX    TMP DP  RH WIND       PRES   REMARKS
MYRTLE BEACH   PTSUNNY   79  57  47 E13G20    30.42S
N MYRTLE BCH   SUNNY     78  57  48 E12       30.40S
CONWAY         FAIR      77  57  50 SE7       30.40R HAZE
MARION         FAIR      79  54  41 SE7       30.40R
HARTSVILLE     FAIR      79  54  41 E8        30.40S
FLORENCE       PTSUNNY   78  56  46 SE12      30.40R
DARLINGTON     MOSUNNY   79  55  44 E5        30.42S
CHARLESTON APT PTSUNNY   78  57  48 E14G20    30.37S
MOUNT PLEASANT FAIR      77  59  53 E8        30.37S
WALTERBORO     MOSUNNY   79  57  47 E13G18    30.38R
BEAUFORT       MOSUNNY   79  61  53 E13       30.36R


...EASTERN GEORGIA...

CITY           SKY/WX    TMP DP  RH WIND       PRES   REMARKS
AUGUSTA BUSH F MOSUNNY   77  59  53 E8        30.36S
AUGUSTA DANIEL MOSUNNY   77  58  51 E9        30.38R
THOMSON        MOSUNNY   78  64  61 E5        30.41S
WASHINGTON     FAIR      77  64  65 E6        30.37F
CLAXTON        FAIR      79  63  57 SE9       30.34R
SYLVANIA       SUNNY     80  62  55 E7        30.36S
STATESBORO     SUNNY     79  63  57 E8        30.35S
SAVANNAH       PTSUNNY   80  60  50 SE15      30.34S


...SOUTHERN NORTH CAROLINA...

CITY           SKY/WX    TMP DP  RH WIND       PRES   REMARKS
CHARLOTTE      PTSUNNY   75  50  41 SW6       30.42F
MONROE         SUNNY     75  55  49 MISG      30.40F
WADESBORO      MOSUNNY   77  55  46 SW5       30.41F
ROCKINGHAM     MOSUNNY   76  55  48 SE7       30.41S
RUTHERFORDTON  MOSUNNY   72  56  57 W3        30.43S
ASHEVILLE      MOSUNNY   69  52  54 VRB6      30.43F

$$


USA.gov is the U.S. government's official web portal to all federal, state and local government web resources and services.